Results



WK Veteranen en Snelle Tour (23/1)

Criterium Heren A en B, Dames, Criterium Snelle Toer, Veteranen (24/1)

1e grote AET Toertocht (25/1)

Aart Koopmans Memorial (26/1)

Criterium Heren A en B, Dames (28/1)

2e grote AET Toertocht (29/1)

Essent Open Nederlandse Kampioenschappen (30/1)

Wedstrijd voor Heren A en B, Dames (31/1)

3e grote AET Toertocht (1/2)

Essent Alternatieve Elfstedentocht (2/2)







Aart Koopmans Memorial (26/1)

Afstand Categorie
Zoek Veld Zoek op
[ Ververs ]
Stand # Naam Plaats/Land Ronden Tijd km/h km
101 D76 Mariska Huisman Viks Parket () 6 1:48:52.8 33.06 60.00
102 D41 Maria Sterk DSB Bank () 6 1:48:53.3 33.06 60.00
103 D79 Sandra 't Hart BTN de Haas/ Landjuweel () 6 1:48:53.4 33.06 60.00
104 D35 Lieke Splinter ÷stersund () 6 1:48:53.5 33.06 60.00
105 D55 Marleen Elstgeest ÷stersund () 6 1:48:53.8 33.06 60.00
106 D08 Hilde Goovaerts Hoolwerf Heiwerken () 6 1:48:53.8 33.06 60.00
107 D73 Hilde van Slochteren VPZ () 6 1:48:54.1 33.06 60.00
108 D66 Margo van de Merwe () 6 1:48:54.3 33.06 60.00
109 D24 Erna Kijk In de Vegte BTN de Haas/ Landjuweel () 6 1:48:54.7 33.05 60.00
110 D71 Helen van Goozen () 6 1:48:55.0 33.05 60.00
111 D84 Lillian van Haaster Up to you too () 6 1:48:55.0 33.05 60.00
112 D50 Astrid de Graaf Vrije Universiteit Amsterdam () 6 1:48:55.1 33.05 60.00
113 D97 Moniek Spigt Schuitemaker schaats- en wielersport () 6 1:48:55.6 33.05 60.00
114 D27 Jaike de Graaf ÷stersund () 6 1:48:55.6 33.05 60.00
115 D26 Jannitta Spigt Hoolwerf Heiwerken () 6 1:48:55.7 33.05 60.00
116 D34 Karin Bakker Viks Parket () 6 1:48:55.8 33.05 60.00
117 D03 Mischa Top BTN de Haas/ Landjuweel () 6 1:48:55.8 33.05 60.00
118 D38 Iris Prinsen Van der Wiel () 6 1:48:56.6 33.04 60.00
119 717 Marianne van Leeuwen Amsterdam (N) 6 1:48:56.8 33.04 60.00
120 D13 Carla Zielman Hoolwerf Heiwerken () 6 1:48:56.9 33.04 60.00
121 D02 Marja van der Werf HSB Totaal () 6 1:48:57.1 33.04 60.00
122 D01 Birgit Witte Foekens () 6 1:48:57.4 33.04 60.00
123 D53 Kimberly Muusse Foekens () 6 1:48:57.4 33.04 60.00
124 D32 Karen Teuling PANalytical () 6 1:48:57.6 33.04 60.00
125 D91 Cindy van den Berg Step-One Borne () 6 1:48:57.9 33.04 60.00
126 D28 Liesbeth Hijlkema Cakyline () 6 1:48:59.8 33.03 60.00
127 D44 Yvonne Spigt Foekens () 6 1:49:03.0 33.01 60.00
128 D80 Jane Douma Caravell () 6 1:49:03.9 33.01 60.00
129 D04 Annemargreet Kramer Pro Horeca () 6 1:49:05.0 33.00 60.00
130 D61 Mischa Coolen Cakyline () 6 1:49:05.1 33.00 60.00
131 D39 Esther Hilberink Van der Wiel () 6 1:49:05.4 33.00 60.00
132 D20 Nynke Bouma-Huitema Pro Horeca () 6 1:49:05.5 33.00 60.00
133 D06 Marjon Spijkerman Hoolwerf Heiwerken () 6 1:49:11.7 32.97 60.00
134 D74 Karin Maarse DSB Bank () 6 1:50:10.2 32.68 60.00
135 D18 Ellen Waijer Pro Horeca () 6 1:50:25.1 32.60 60.00
136 D42 Ankie Ytsma HSB Totaal () 6 1:50:25.2 32.60 60.00
137 D75 Sanne Halma HSB Totaal () 6 1:51:04.0 32.41 60.00
138 D69 Ilse Hoogland Caravell () 6 1:57:09.4 30.73 60.00
139 D57 Sigrid Plender-ter Haar Frisia Financieringen () 6 1:57:25.7 30.66 60.00
140 041 Pieter Jan van Eck Safan () 6 2:05:22.4 28.71 60.00
141 048 Perry de Vreede PGM Bakker Vastgoed () 5 1:18:36.0 38.17 50.00
142 059 Roy Polmans Foekens () 5 1:18:36.9 38.16 50.00
143 B28 Mark Huisman Viks Parket () 5 1:18:37.9 38.15 50.00
144 042 Henri Ruitenberg Safan () 5 1:18:38.0 38.15 50.00
145 B19 Martijn de Groot Goesting Events () 5 1:19:41.1 37.65 50.00
146 B45 Emiel de Groot Free-Wheel () 5 1:19:58.8 37.51 50.00
147 718 Peter Keiser Amsterdam (N) 5 1:22:23.9 36.41 50.00
148 B78 Hans Roling Goesting.nl () 5 1:24:00.8 35.71 50.00
149 D11 Anne Bult Vrije Universiteit Amsterdam () 5 1:43:23.0 29.02 50.00
150 034 Kurt Wubben Team TNT Express () 4 1:03:33.8 37.76 40.00
151 B93 Remco Huisman Thermo.com () 4 1:03:34.9 37.75 40.00
152 B76 Robert van Dalen Sport2000 Stehmann () 4 1:04:07.5 37.43 40.00
153 713 Ronald Kruijer Heiligerlee (N) 3 0:47:40.5 37.76 30.00
154 080 Alfred Bolks Equipe Renault () 3 0:47:43.0 37.72 30.00
155 704 Norbert Kampitsch Feffernitz oostenrijk (A) 3 0:50:12.9 35.85 30.00
156 D60 Annelies Passchier Pro Horeca () 3 0:54:47.7 32.85 30.00
157 D25 Marjolijn Hulzebosch Van der Wiel () 3 0:57:03.9 31.54 30.00
158 719 F. Riemersma (N) 3 1:01:28.2 29.28 30.00
159 D33 Hanneke Tenniglo Aavas Groep () 3 1:07:29.4 26.67 30.00
160 711 Gerben van Vilsteren Zwolle (N) 2 0:32:13.6 37.24 20.00
161 D29 Kitty Meeth DSB Bank () 2 0:37:15.8 32.20 20.00
162 715 Mark Vos Scheemda (N) 2 0:40:08.9 29.89 20.00
163 714 Rense Veenstra Haren (N) 2 0:40:38.1 29.53 20.00
164 B29 Michiel Maerten Goesting.nl () 1 0:16:03.0 37.39 10.00
165 D45 Petra Spigt Finisher Gipsplaatvoegers () 1 0:20:24.5 29.40 10.00
166 037 Arjan Mombarg Nefit HR Ketels () 0 0.00
167 033 Thierry Mijsters Adformatie/Jobnews () 0 0.00
168 039 Erik Hulzebosch Nefit HR Ketels () 0 0.00
169 030 Roel van Hest Beelen Sloopwerken () 0 0.00
170 031 Ruud Borst De Haan Westerhoff / VrieService () 0 0.00
171 015 Alain Gloor Power-Play.nl () 0 0.00
172 013 Andres Landman Foekens () 0 0.00
173 019 Roger Schneider Hunter Sportswear Team () 0 0.00
174 006 Arjan Smit Nefit HR Ketels () 0 0.00
175 D98 Francisca Groen () 0 0.00
176 001 Jan Maarten Heideman DSB Bank () 0 0.00
177 003 Douwe de Vries Time Out Sport/Vrieling () 0 0.00
178 D93 Zinzi Mol Vrije Universiteit Amsterdam () 0 0.00
179 D94 Sanne Bax () 0 0.00
180 D95 Sjoukje Duinmaijer Duinmaijer bv () 0 0.00
181 D96 Paula Mol Vrije Universiteit Amsterdam () 0 0.00
182 D85 Heleen van Vliet () 0 0.00
183 D87 Elma de Vries DSB Bank () 0 0.00
184 D88 Erna Hilgersom Freek van Os Loodgietersbedrijf () 0 0.00
185 D89 Angela Hemeltjen Free-Wheel () 0 0.00
186 D90 Aniek Veldman Netko Raalte () 0 0.00
187 D78 Janneke Ensing Frisia Financieringen () 0 0.00
188 D81 Jolanda Spruit Groenehartsport.nl () 0 0.00
189 D83 Eline Bavius Groenehartsport.nl () 0 0.00
190 D62 Sabine van der Wiel Groenehartsport.nl () 0 0.00
191 D63 Leonie Lubbinge () 0 0.00
192 D64 Gretha Smit Telfort () 0 0.00
193 D65 Carin Ketellapper () 0 0.00
194 D72 Marloes Verschoor Skate Life () 0 0.00
195 D67 Marja Vis Hofmeier () 0 0.00
196 D46 Bauke Haarlink Aavas Groep () 0 0.00
197 D47 Anniek ter Haar Time Out Sport/Vrieling () 0 0.00
198 D51 Yasmin van Benthem () 0 0.00
199 D52 Marieke van Hoek Anthura () 0 0.00
200 D56 Lucy Hutten-Witteman HSB Totaal () 0 0.00
[ Vorige ] [ Volgende ]
425 Gevonden resultaten - Pagina's: 1 | 2 | 3 | 4 | 5